Time,TemperatureF,DewpointF,PressureIn,WindDirection,WindDirectionDegrees,WindSpeedMPH,WindSpeedGustMPH,Humidity,HourlyPrecipIn,Conditions,Clouds,dailyrainin,SoftwareType,DateUTC
2013-04-26 00:02:00,35.0,29.0,-100.00,SSW,195,0.0,0.0,78,-99.99,,,-99.99,,2013-04-26 05:02:00,
2013-04-26 00:12:00,35.0,29.0,-100.00,SSW,195,0.0,0.0,78,-99.99,,,-99.99,,2013-04-26 05:12:00,
2013-04-26 00:32:00,35.0,28.0,-100.00,SE,130,0.0,0.0,77,-99.99,,,-99.99,,2013-04-26 05:32:00,
2013-04-26 00:42:00,35.0,28.0,-100.00,SE,130,0.0,0.0,77,-99.99,,,-99.99,,2013-04-26 05:42:00,
2013-04-26 00:52:00,35.0,28.0,-100.00,SE,130,0.0,0.0,77,-99.99,,,-99.99,,2013-04-26 05:52:00,
2013-04-26 01:02:00,35.0,28.0,-100.00,SE,130,0.0,0.0,77,-99.99,,,-99.99,,2013-04-26 06:02:00,
2013-04-26 01:11:00,35.0,28.0,-100.00,SE,130,0.0,0.0,77,-99.99,,,-99.99,,2013-04-26 06:11:00,
2013-04-26 01:32:00,34.0,27.0,-100.00,ESE,115,0.0,0.0,75,-99.99,,,-99.99,,2013-04-26 06:32:00,
2013-04-26 01:42:00,34.0,27.0,-100.00,ESE,115,0.0,0.0,75,-99.99,,,-99.99,,2013-04-26 06:42:00,
2013-04-26 01:52:00,34.0,27.0,-100.00,ESE,115,0.0,0.0,75,-99.99,,,-99.99,,2013-04-26 06:52:00,
2013-04-26 02:01:00,34.0,27.0,-100.00,ESE,115,0.0,0.0,75,-99.99,,,-99.99,,2013-04-26 07:01:00,
2013-04-26 02:11:00,34.0,27.0,-100.00,ESE,115,0.0,0.0,75,-99.99,,,-99.99,,2013-04-26 07:11:00,
2013-04-26 02:32:00,35.0,28.0,-100.00,ESE,120,0.0,0.0,75,-99.99,,,-99.99,,2013-04-26 07:32:00,
2013-04-26 02:42:00,35.0,28.0,-100.00,ESE,120,0.0,0.0,75,-99.99,,,-99.99,,2013-04-26 07:42:00,
2013-04-26 02:52:00,35.0,28.0,-100.00,ESE,120,0.0,0.0,75,-99.99,,,-99.99,,2013-04-26 07:52:00,
2013-04-26 03:02:00,35.0,28.0,-100.00,ESE,120,0.0,0.0,75,-99.99,,,-99.99,,2013-04-26 08:02:00,
2013-04-26 03:11:00,35.0,28.0,-100.00,ESE,120,0.0,0.0,75,-99.99,,,-99.99,,2013-04-26 08:11:00,
2013-04-26 03:32:00,36.0,29.0,-100.00,East,85,0.0,0.0,74,-99.99,,,-99.99,,2013-04-26 08:32:00,
2013-04-26 03:42:00,36.0,29.0,-100.00,East,85,0.0,0.0,74,-99.99,,,-99.99,,2013-04-26 08:42:00,
2013-04-26 03:52:00,36.0,29.0,-100.00,East,85,0.0,0.0,74,-99.99,,,-99.99,,2013-04-26 08:52:00,
2013-04-26 04:01:00,36.0,29.0,-100.00,East,85,0.0,0.0,74,-99.99,,,-99.99,,2013-04-26 09:01:00,
2013-04-26 04:11:00,36.0,29.0,-100.00,East,85,0.0,0.0,74,-99.99,,,-99.99,,2013-04-26 09:11:00,
2013-04-26 04:12:00,35.0,29.0,-100.00,ESE,105,0.0,0.0,77,-99.99,,,-99.99,,2013-04-26 09:12:00,
2013-04-26 04:33:00,35.0,29.0,-100.00,ESE,105,0.0,0.0,77,-99.99,,,-99.99,,2013-04-26 09:33:00,
2013-04-26 04:43:00,35.0,29.0,-100.00,ESE,105,0.0,0.0,77,-99.99,,,-99.99,,2013-04-26 09:43:00,
2013-04-26 04:53:00,35.0,29.0,-100.00,ESE,105,0.0,0.0,77,-99.99,,,-99.99,,2013-04-26 09:53:00,
2013-04-26 05:03:00,35.0,29.0,-100.00,ESE,105,0.0,0.0,77,-99.99,,,-99.99,,2013-04-26 10:03:00,
2013-04-26 05:33:00,37.0,28.0,-100.00,SE,125,0.0,0.0,70,-99.99,,,-99.99,,2013-04-26 10:33:00,
2013-04-26 05:42:00,37.0,28.0,-100.00,SE,125,0.0,0.0,70,-99.99,,,-99.99,,2013-04-26 10:42:00,
2013-04-26 05:52:00,37.0,28.0,-100.00,SE,125,0.0,0.0,70,-99.99,,,-99.99,,2013-04-26 10:52:00,
2013-04-26 06:02:00,37.0,28.0,-100.00,SE,125,0.0,0.0,70,-99.99,,,-99.99,,2013-04-26 11:02:00,
2013-04-26 06:11:00,37.0,28.0,-100.00,SE,125,0.0,0.0,70,-99.99,,,-99.99,,2013-04-26 11:11:00,
2013-04-26 06:32:00,38.0,28.0,-100.00,South,180,0.0,0.0,67,-99.99,,,-99.99,,2013-04-26 11:32:00,
2013-04-26 06:42:00,38.0,28.0,-100.00,South,180,0.0,0.0,67,-99.99,,,-99.99,,2013-04-26 11:42:00,
2013-04-26 06:52:00,38.0,28.0,-100.00,South,180,0.0,0.0,67,-99.99,,,-99.99,,2013-04-26 11:52:00,
2013-04-26 07:01:00,38.0,28.0,-100.00,South,180,0.0,0.0,67,-99.99,,,-99.99,,2013-04-26 12:01:00,
2013-04-26 07:11:00,38.0,28.0,-100.00,South,180,0.0,0.0,67,-99.99,,,-99.99,,2013-04-26 12:11:00,
2013-04-26 07:32:00,40.0,31.0,-100.00,South,190,0.0,0.0,69,-99.99,,,-99.99,,2013-04-26 12:32:00,
2013-04-26 07:42:00,40.0,31.0,-100.00,South,190,0.0,0.0,69,-99.99,,,-99.99,,2013-04-26 12:42:00,
2013-04-26 07:52:00,40.0,31.0,-100.00,South,190,0.0,0.0,69,-99.99,,,-99.99,,2013-04-26 12:52:00,
2013-04-26 08:01:00,40.0,31.0,-100.00,South,190,0.0,0.0,69,-99.99,,,-99.99,,2013-04-26 13:01:00,
2013-04-26 08:11:00,40.0,31.0,-100.00,South,190,0.0,0.0,69,-99.99,,,-99.99,,2013-04-26 13:11:00,
2013-04-26 09:32:00,44.0,32.0,-100.00,SSE,165,0.0,1.0,63,-99.99,,,-99.99,,2013-04-26 14:32:00,
2013-04-26 09:42:00,44.0,32.0,-100.00,SSE,165,0.0,1.0,63,-99.99,,,-99.99,,2013-04-26 14:42:00,
2013-04-26 09:52:00,44.0,32.0,-100.00,SSE,165,0.0,1.0,63,-99.99,,,-99.99,,2013-04-26 14:52:00,
2013-04-26 10:01:00,44.0,32.0,-100.00,SSE,165,0.0,1.0,63,-99.99,,,-99.99,,2013-04-26 15:01:00,
2013-04-26 10:12:00,44.0,32.0,-100.00,SSE,165,0.0,1.0,63,-99.99,,,-99.99,,2013-04-26 15:12:00,
2013-04-26 11:33:00,53.0,35.0,-100.00,SSW,195,0.0,0.0,51,-99.99,,,-99.99,,2013-04-26 16:33:00,
2013-04-26 11:42:00,53.0,35.0,-100.00,SSW,195,0.0,0.0,51,-99.99,,,-99.99,,2013-04-26 16:42:00,
2013-04-26 11:53:00,53.0,35.0,-100.00,SSW,195,0.0,0.0,51,-99.99,,,-99.99,,2013-04-26 16:53:00,
2013-04-26 12:02:00,53.0,35.0,-100.00,SSW,195,0.0,0.0,51,-99.99,,,-99.99,,2013-04-26 17:02:00,
2013-04-26 12:12:00,53.0,35.0,-100.00,SSW,195,0.0,0.0,51,-99.99,,,-99.99,,2013-04-26 17:12:00,
2013-04-26 12:32:00,59.0,37.0,-100.00,South,190,0.0,0.0,44,-99.99,,,-99.99,,2013-04-26 17:32:00,
2013-04-26 12:42:00,59.0,37.0,-100.00,South,190,0.0,0.0,44,-99.99,,,-99.99,,2013-04-26 17:42:00,
2013-04-26 12:52:00,59.0,37.0,-100.00,South,190,0.0,0.0,44,-99.99,,,-99.99,,2013-04-26 17:52:00,
2013-04-26 13:02:00,59.0,37.0,-100.00,South,190,0.0,0.0,44,-99.99,,,-99.99,,2013-04-26 18:02:00,
2013-04-26 13:11:00,59.0,37.0,-100.00,South,190,0.0,0.0,44,-99.99,,,-99.99,,2013-04-26 18:11:00,
2013-04-26 13:33:00,62.0,35.0,-100.00,SW,235,0.0,1.0,37,-99.99,,,-99.99,,2013-04-26 18:33:00,
2013-04-26 13:42:00,62.0,35.0,-100.00,SW,235,0.0,1.0,37,-99.99,,,-99.99,,2013-04-26 18:42:00,
2013-04-26 13:52:00,62.0,35.0,-100.00,SW,235,0.0,1.0,37,-99.99,,,-99.99,,2013-04-26 18:52:00,
2013-04-26 14:01:00,62.0,35.0,-100.00,SW,235,0.0,1.0,37,-99.99,,,-99.99,,2013-04-26 19:01:00,
2013-04-26 14:11:00,62.0,35.0,-100.00,SW,235,0.0,1.0,37,-99.99,,,-99.99,,2013-04-26 19:11:00,
2013-04-26 15:32:00,67.0,36.0,-100.00,WSW,240,0.0,0.0,32,-99.99,,,-99.99,,2013-04-26 20:32:00,
2013-04-26 15:42:00,67.0,36.0,-100.00,WSW,240,0.0,0.0,32,-99.99,,,-99.99,,2013-04-26 20:42:00,
2013-04-26 15:52:00,67.0,36.0,-100.00,WSW,240,0.0,0.0,32,-99.99,,,-99.99,,2013-04-26 20:52:00,
2013-04-26 16:01:00,67.0,36.0,-100.00,WSW,240,0.0,0.0,32,-99.99,,,-99.99,,2013-04-26 21:01:00,
2013-04-26 16:11:00,67.0,36.0,-100.00,WSW,240,0.0,0.0,32,-99.99,,,-99.99,,2013-04-26 21:11:00,
2013-04-26 16:12:00,68.0,35.0,-100.00,SW,230,0.0,1.0,30,-99.99,,,-99.99,,2013-04-26 21:12:00,
2013-04-26 16:33:00,68.0,35.0,-100.00,SW,230,0.0,1.0,30,-99.99,,,-99.99,,2013-04-26 21:33:00,
2013-04-26 16:42:00,68.0,35.0,-100.00,SW,230,0.0,1.0,30,-99.99,,,-99.99,,2013-04-26 21:42:00,
2013-04-26 16:53:00,68.0,35.0,-100.00,SW,230,0.0,1.0,30,-99.99,,,-99.99,,2013-04-26 21:53:00,
2013-04-26 17:02:00,68.0,35.0,-100.00,SW,230,0.0,1.0,30,-99.99,,,-99.99,,2013-04-26 22:02:00,
2013-04-26 17:33:00,68.0,36.0,-100.00,WSW,255,0.0,1.0,31,-99.99,,,-99.99,,2013-04-26 22:33:00,
2013-04-26 17:42:00,68.0,36.0,-100.00,WSW,255,0.0,1.0,31,-99.99,,,-99.99,,2013-04-26 22:42:00,
2013-04-26 17:52:00,68.0,36.0,-100.00,WSW,255,0.0,1.0,31,-99.99,,,-99.99,,2013-04-26 22:52:00,
2013-04-26 18:02:00,68.0,36.0,-100.00,WSW,255,0.0,1.0,31,-99.99,,,-99.99,,2013-04-26 23:02:00,
2013-04-26 18:11:00,68.0,36.0,-100.00,WSW,255,0.0,1.0,31,-99.99,,,-99.99,,2013-04-26 23:11:00,
2013-04-26 18:32:00,66.0,35.0,-100.00,WSW,255,0.0,0.0,32,-99.99,,,-99.99,,2013-04-26 23:32:00,
2013-04-26 18:42:00,66.0,35.0,-100.00,WSW,255,0.0,0.0,32,-99.99,,,-99.99,,2013-04-26 23:42:00,
2013-04-26 18:52:00,66.0,35.0,-100.00,WSW,255,0.0,0.0,32,-99.99,,,-99.99,,2013-04-26 23:52:00,
2013-04-26 19:01:00,66.0,35.0,-100.00,WSW,255,0.0,0.0,32,-99.99,,,-99.99,,2013-04-27 00:01:00,
2013-04-26 19:11:00,66.0,35.0,-100.00,WSW,255,0.0,0.0,32,-99.99,,,-99.99,,2013-04-27 00:11:00,
2013-04-26 19:12:00,64.0,36.0,-100.00,WSW,245,0.0,0.0,36,-99.99,,,-99.99,,2013-04-27 00:12:00,
2013-04-26 19:32:00,64.0,36.0,-100.00,WSW,245,0.0,0.0,36,-99.99,,,-99.99,,2013-04-27 00:32:00,
2013-04-26 19:42:00,64.0,36.0,-100.00,WSW,245,0.0,0.0,36,-99.99,,,-99.99,,2013-04-27 00:42:00,
2013-04-26 19:52:00,64.0,36.0,-100.00,WSW,245,0.0,0.0,36,-99.99,,,-99.99,,2013-04-27 00:52:00,
2013-04-26 20:01:00,64.0,36.0,-100.00,WSW,245,0.0,0.0,36,-99.99,,,-99.99,,2013-04-27 01:01:00,
2013-04-26 20:32:00,59.0,37.0,-100.00,NNW,330,0.0,0.0,44,-99.99,,,-99.99,,2013-04-27 01:32:00,
2013-04-26 20:42:00,59.0,37.0,-100.00,NNW,330,0.0,0.0,44,-99.99,,,-99.99,,2013-04-27 01:42:00,
2013-04-26 20:52:00,59.0,37.0,-100.00,NNW,330,0.0,0.0,44,-99.99,,,-99.99,,2013-04-27 01:52:00,
2013-04-26 21:01:00,59.0,37.0,-100.00,NNW,330,0.0,0.0,44,-99.99,,,-99.99,,2013-04-27 02:01:00,
2013-04-26 21:11:00,59.0,37.0,-100.00,NNW,330,0.0,0.0,44,-99.99,,,-99.99,,2013-04-27 02:11:00,
2013-04-26 21:32:00,55.0,40.0,-100.00,WNW,290,0.0,0.0,56,-99.99,,,-99.99,,2013-04-27 02:32:00,
2013-04-26 21:42:00,55.0,40.0,-100.00,WNW,290,0.0,0.0,56,-99.99,,,-99.99,,2013-04-27 02:42:00,
2013-04-26 21:52:00,55.0,40.0,-100.00,WNW,290,0.0,0.0,56,-99.99,,,-99.99,,2013-04-27 02:52:00,
2013-04-26 22:02:00,55.0,40.0,-100.00,WNW,290,0.0,0.0,56,-99.99,,,-99.99,,2013-04-27 03:02:00,
2013-04-26 22:11:00,55.0,40.0,-100.00,WNW,290,0.0,0.0,56,-99.99,,,-99.99,,2013-04-27 03:11:00,
2013-04-26 22:12:00,50.0,41.0,-100.00,NNW,330,0.0,0.0,72,-99.99,,,-99.99,,2013-04-27 03:12:00,
2013-04-26 22:33:00,50.0,41.0,-100.00,NNW,330,0.0,0.0,72,-99.99,,,-99.99,,2013-04-27 03:33:00,
2013-04-26 22:43:00,50.0,41.0,-100.00,NNW,330,0.0,0.0,72,-99.99,,,-99.99,,2013-04-27 03:43:00,
2013-04-26 22:53:00,50.0,41.0,-100.00,NNW,330,0.0,0.0,72,-99.99,,,-99.99,,2013-04-27 03:53:00,
2013-04-26 23:02:00,50.0,41.0,-100.00,NNW,330,0.0,0.0,72,-99.99,,,-99.99,,2013-04-27 04:02:00,
2013-04-26 23:33:00,52.0,44.0,-100.00,SSW,205,0.0,0.0,74,-99.99,,,-99.99,,2013-04-27 04:33:00,
2013-04-26 23:43:00,52.0,44.0,-100.00,SSW,205,0.0,0.0,74,-99.99,,,-99.99,,2013-04-27 04:43:00,
2013-04-26 23:53:00,52.0,44.0,-100.00,SSW,205,0.0,0.0,74,-99.99,,,-99.99,,2013-04-27 04:53:00,